H1 CPF 2 NER 2023 6 19 9 170 01 glonass129 H2 1106402 9129 37868 2023 6 19 0 0 0 2023 6 22 23 45 0 900 1 1 0 0 0 1 H9 10 0 60114 0.00000 0 521841.923 -11468294.594 22824739.929 10 0 60114 900.00000 0 3149093.438 -10433674.636 23104836.672 10 0 60114 1800.00000 0 5852223.766 -9592299.535 22938249.391 10 0 60114 2700.00000 0 8563891.993 -8962304.202 22328005.468 10 0 60114 3600.00000 0 11214982.970 -8549667.423 21285680.333 10 0 60114 4500.00000 0 13737245.498 -8348060.517 19831194.596 10 0 60114 5400.00000 0 16065909.064 -8339224.826 17992453.196 10 0 60114 6300.00000 0 18142172.137 -8493863.676 15804831.358 10 0 60114 7200.00000 0 19915459.445 -8773013.142 13310514.973 10 0 60114 8100.00000 0 21345354.299 -9129835.813 10557705.830 10 0 60114 9000.00000 0 22403124.639 -9511763.604 7599705.002 10 0 60114 9900.00000 0 23072777.660 -9862900.356 4493890.547 10 0 60114 10800.00000 0 23351597.072 -10126583.149 1300608.311 10 0 60114 11700.00000 0 23250138.580 -10247993.617 -1918003.002 10 0 60114 12600.00000 0 22791681.983 -10176707.509 -5099229.261 10 0 60114 13500.00000 0 22011161.574 -9869072.524 -8181016.179 10 0 60114 14400.00000 0 20953619.095 -9290311.140 -11103196.852 10 0 60114 15300.00000 0 19672244.322 -8416256.433 -13808685.701 10 0 60114 16200.00000 0 18226086.515 -7234644.418 -16244613.506 10 0 60114 17100.00000 0 16677534.388 -5745905.396 -18363379.320 10 0 60114 18000.00000 0 15089672.514 -3963418.455 -20123596.889 10 0 60114 18900.00000 0 13523627.379 -1913216.512 -21490915.598 10 0 60114 19800.00000 0 12036016.685 366846.908 -22438698.900 10 0 60114 20700.00000 0 10676610.750 2828434.671 -22948546.405 10 0 60114 21600.00000 0 9486305.388 5414510.641 -23010649.394 10 0 60114 22500.00000 0 8495491.808 8061496.621 -22623973.235 10 0 60114 23400.00000 0 7722891.649 10701710.528 -21796263.922 10 0 60114 24300.00000 0 7174904.906 13265983.000 -20543879.716 10 0 60114 25200.00000 0 6845496.355 15686342.400 -18891452.464 10 0 60114 26100.00000 0 6716622.853 17898655.618 -16871386.648 10 0 60114 27000.00000 0 6759180.882 19845114.459 -14523207.404 10 0 60114 27900.00000 0 6934431.624 21476464.399 -11892771.649 10 0 60114 28800.00000 0 7195840.892 22753883.736 -9031359.056 10 0 60114 29700.00000 0 7491253.992 23650436.398 -5994661.775 10 0 60114 30600.00000 0 7765311.951 24152039.823 -2841693.517 10 0 60114 31500.00000 0 7962005.909 24257909.960 366360.053 10 0 60114 32400.00000 0 8027261.311 23980467.369 3567326.914 10 0 60114 33300.00000 0 7911442.864 23344710.889 6699247.299 10 0 60114 34200.00000 0 7571675.214 22387087.302 9701562.431 10 0 60114 35100.00000 0 6973882.454 21153905.984 12516271.235 10 0 60114 36000.00000 0 6094461.708 19699365.912 15089033.835 10 0 60114 36900.00000 0 4921521.456 18083277.824 17370202.031 10 0 60114 37800.00000 0 3455633.386 16368576.278 19315758.628 10 0 60114 38700.00000 0 1710066.439 14618724.347 20888149.344 10 0 60114 39600.00000 0 -289507.083 12895117.591 22056993.070 10 0 60114 40500.00000 0 -2505822.263 11254593.580 22799658.340 10 0 60114 41400.00000 0 -4891317.233 9747148.652 23101696.150 10 0 60114 42300.00000 0 -7389862.252 8413955.152 22957121.432 10 0 60114 43200.00000 0 -9938853.233 7285760.216 22368537.868 10 0 60114 44100.00000 0 -12471585.849 6381731.856 21347103.045 10 0 60114 45000.00000 0 -14919814.565 5708800.161 19912333.443 10 0 60114 45900.00000 0 -17216392.990 5261521.453 18091751.263 10 0 60114 46800.00000 0 -19297887.837 5022472.004 15920377.793 10 0 60114 47700.00000 0 -21107058.984 4963156.167 13440080.746 10 0 60114 48600.00000 0 -22595102.712 5045392.358 10698785.903 10 0 60114 49500.00000 0 -23723564.071 5223120.087 7749566.170 10 0 60114 50400.00000 0 -24465837.156 5444553.106 4649624.099 10 0 60114 51300.00000 0 -24808188.719 5654588.410 1459186.514 10 0 60114 52200.00000 0 -24750260.051 5797369.206 -1759667.706 10 0 60114 53100.00000 0 -24305023.929 5818892.504 -4944223.549 10 0 60114 54000.00000 0 -23498196.560 5669549.291 -8032364.883 10 0 60114 54900.00000 0 -22367127.902 5306487.347 -10963803.014 10 0 60114 55800.00000 0 -20959216.350 4695693.877 -13681272.919 10 0 60114 56700.00000 0 -19329914.608 3813706.763 -16131671.779 10 0 60114 57600.00000 0 -17540411.397 2648879.117 -18267115.538 10 0 60114 58500.00000 0 -15655087.893 1202141.032 -20045891.008 10 0 60114 59400.00000 0 -13738857.535 -512775.792 -21433283.420 10 0 60114 60300.00000 0 -11854502.789 -2469661.580 -22402262.212 10 0 60114 61200.00000 0 -10060122.357 -4630687.412 -22934011.086 10 0 60114 62100.00000 0 -8406797.208 -6947763.734 -23018291.916 10 0 60114 63000.00000 0 -6936573.939 -9364341.141 -22653635.790 10 0 60114 63900.00000 0 -5680849.960 -11817577.261 -21847358.230 10 0 60114 64800.00000 0 -4659227.280 -14240778.121 -20615399.381 10 0 60114 65700.00000 0 -3878881.332 -16566010.965 -18981993.568 10 0 60114 66600.00000 0 -3334469.015 -18726778.535 -16979176.123 10 0 60114 67500.00000 0 -3008577.029 -20660642.636 -14646138.550 10 0 60114 68400.00000 0 -2872688.626 -22311687.452 -12028446.049 10 0 60114 69300.00000 0 -2888625.068 -23632720.218 -9177134.010 10 0 60114 70200.00000 0 -3010398.270 -24587118.443 -6147702.268 10 0 60114 71100.00000 0 -3186394.135 -25150248.105 -2999027.667 10 0 60114 72000.00000 0 -3361792.692 -25310395.519 207783.177 10 0 60114 72900.00000 0 -3481121.798 -25069176.228 3410578.263 10 0 60114 73800.00000 0 -3490836.169 -24441406.070 6547358.724 10 0 60114 74700.00000 0 -3341813.147 -23454442.023 9557468.623 10 0 60114 75600.00000 0 -2991660.646 -22147022.089 12382753.765 10 0 60114 76500.00000 0 -2406741.080 -20567653.974 14968668.339 10 0 60114 77400.00000 0 -1563827.215 -18772620.355 17265309.444 10 0 60114 78300.00000 0 -451321.328 -16823683.804 19228361.329 10 0 60114 79200.00000 0 930012.887 -14785586.135 20819932.973 10 0 60114 80100.00000 0 2566836.307 -12723444.864 22009274.644 10 0 60114 81000.00000 0 4433547.873 -10700153.168 22773361.235 10 0 60114 81900.00000 0 6493113.973 -8773889.351 23097332.370 10 0 60114 82800.00000 0 8698381.180 -6995837.216 22974781.495 10 0 60114 83700.00000 0 10993820.409 -5408210.258 22407888.506 10 0 60114 84600.00000 0 13317632.873 -4042660.381 21407392.812 10 0 60114 85500.00000 0 15604133.321 -2919136.558 19992406.174 10 0 60115 0.00000 0 17786314.068 -2045240.866 18190067.416 10 0 60115 900.00000 0 19798486.637 -1416108.748 16035042.487 10 0 60115 1800.00000 0 21578889.692 -1014820.597 13568879.739 10 0 60115 2700.00000 0 23072159.184 -813327.103 10839227.311 10 0 60115 3600.00000 0 24231554.495 -773852.111 7898928.004 10 0 60115 4500.00000 0 25020847.616 -850714.661 4805006.606 10 0 60115 5400.00000 0 25415794.339 -992494.270 1617568.364 10 0 60115 6300.00000 0 25405123.550 -1144448.252 -1601370.473 10 0 60115 7200.00000 0 24991000.662 -1251078.302 -4789096.982 10 0 60115 8100.00000 0 24188943.422 -1258736.466 -7883436.212 10 0 60115 9000.00000 0 23027191.697 -1118158.126 -10823980.658 10 0 60115 9900.00000 0 21545556.414 -786812.206 -13553288.684 10 0 60115 10800.00000 0 19793795.503 -230966.232 -16018026.481 10 0 60115 11700.00000 0 17829585.241 572624.101 -18170029.245 10 0 60115 12600.00000 0 15716173.131 1635475.034 -19967258.938 10 0 60115 13500.00000 0 13519812.233 2956639.264 -21374638.445 10 0 60115 14400.00000 0 11307086.219 4522507.722 -22364744.725 10 0 60115 15300.00000 0 9142238.979 6307158.086 -22918346.824 10 0 60115 16200.00000 0 7084622.060 8273235.892 -23024778.155 10 0 60115 17100.00000 0 5186367.698 10373331.096 -22682136.137 10 0 60115 18000.00000 0 3490385.095 12551791.716 -21897306.067 10 0 60115 18900.00000 0 2028763.255 14746897.601 -20685809.823 10 0 60115 19800.00000 0 821645.874 16893302.233 -19071483.651 10 0 60115 20700.00000 0 -123376.674 18924639.293 -17085992.750 10 0 60115 21600.00000 0 -811335.438 20776184.171 -14768193.592 10 0 60115 22500.00000 0 -1259411.365 22387458.649 -12163357.847 10 0 60115 23400.00000 0 -1495947.156 23704669.855 -9322274.408 10 0 60115 24300.00000 0 -1558987.273 24682882.058 -6300248.228 10 0 60115 25200.00000 0 -1494410.421 25287831.537 -3156016.405 10 0 60115 26100.00000 0 -1353735.522 25497310.144 49396.633 10 0 60115 27000.00000 0 -1191695.423 25302061.532 3253862.200 10 0 60115 27900.00000 0 -1063681.605 24706154.610 6395345.721 10 0 60115 28800.00000 0 -1023167.979 23726820.537 9413097.469 10 0 60115 29700.00000 0 -1119221.983 22393761.834 12248813.426 10 0 60115 30600.00000 0 -1394207.023 20747963.720 14847744.967 10 0 60115 31500.00000 0 -1881771.877 18840057.968 17159737.412 10 0 60115 32400.00000 0 -2605210.423 16728307.522 19140179.117 10 0 60115 33300.00000 0 -3576259.686 14476295.047 20750844.683 10 0 60115 34200.00000 0 -4794386.095 12150410.288 21960617.782 10 0 60115 35100.00000 0 -6246590.001 9817238.759 22746081.318 10 0 60115 36000.00000 0 -7907737.513 7540958.027 23091964.767 10 0 60115 36900.00000 0 -9741407.401 5380847.400 22991440.831 10 0 60115 37800.00000 0 -11701220.008 3389012.195 22446265.836 10 0 60115 38700.00000 0 -13732595.548 1608415.253 21466760.643 10 0 60115 39600.00000 0 -15774871.494 71296.236 20071631.330 10 0 60115 40500.00000 0 -17763693.756 -1201956.278 18287631.403 10 0 60115 41400.00000 0 -19633584.613 -2203432.878 16149069.964 10 0 60115 42300.00000 0 -21320582.217 -2937804.841 13697173.009 10 0 60115 43200.00000 0 -22764842.659 -3421893.844 10979307.894 10 0 60115 44100.00000 0 -23913096.073 -3683726.670 8048083.818 10 0 60115 45000.00000 0 -24720853.253 -3761113.402 4960344.084 10 0 60115 45900.00000 0 -25154268.798 -3699808.021 1776068.513 10 0 60115 46800.00000 0 -25191580.399 -3551328.507 -1442793.140 10 0 60115 47700.00000 0 -24824061.272 -3370528.701 -4633533.829 10 0 60115 48600.00000 0 -24056443.036 -3213025.526 -7733923.439 10 0 60115 49500.00000 0 -22906788.853 -3132592.067 -10683439.110 10 0 60115 50400.00000 0 -21405820.207 -3178629.103 -13424465.775 10 0 60115 51300.00000 0 -19595724.401 -3393824.787 -15903441.481 10 0 60115 52200.00000 0 -17528492.357 -3812104.346 -18071923.082 10 0 60115 53100.00000 0 -15263856.816 -4456959.267 -19887549.587 10 0 60115 54000.00000 0 -12866918.345 -5340229.050 -21314882.822 10 0 60115 54900.00000 0 -10405559.974 -6461388.906 -22326107.905 10 0 60115 55800.00000 0 -7947760.300 -7807374.790 -22901579.192 10 0 60115 56700.00000 0 -5558918.921 -9352953.814 -23030200.951 10 0 60115 57600.00000 0 -3299307.123 -11061624.517 -22709635.663 10 0 60115 58500.00000 0 -1221750.959 -12887008.620 -21946336.623 10 0 60115 59400.00000 0 630356.649 -14774674.926 -20755405.263 10 0 60115 60300.00000 0 2224632.641 -16664317.666 -19160277.257 10 0 60115 61200.00000 0 3540805.176 -18492196.718 -17192244.955 10 0 60115 62100.00000 0 4571295.955 -20193736.332 -14889826.942 10 0 60115 63000.00000 0 5321262.109 -21706172.641 -12297998.430 10 0 60115 63900.00000 0 5808099.132 -22971138.645 -9467298.893 10 0 60115 64800.00000 0 6060429.135 -23937078.436 -6452835.518 10 0 60115 65700.00000 0 6116620.144 -24561390.142 -3313202.866 10 0 60115 66600.00000 0 6022901.527 -24812208.893 -109340.522 10 0 60115 67500.00000 0 5831157.164 -24669756.563 3096648.653 10 0 60115 68400.00000 0 5596490.842 -24127203.511 6242696.701 10 0 60115 69300.00000 0 5374667.256 -23191007.974 9267962.252 10 0 60115 70200.00000 0 5219536.487 -21880720.526 12113993.392 10 0 60115 71100.00000 0 5180549.877 -20228263.050 14725840.404 10 0 60115 72000.00000 0 5300470.832 -18276713.070 17053098.290 10 0 60115 72900.00000 0 5613375.602 -16078644.221 19050860.715 10 0 60115 73800.00000 0 6143026.818 -13694091.412 20680568.808 10 0 60115 74700.00000 0 6901687.109 -11188224.045 21910740.266 10 0 60115 75600.00000 0 7889422.112 -8628822.139 22717566.308 10 0 60115 76500.00000 0 9093922.316 -6083657.843 23085366.283 10 0 60115 77400.00000 0 10490852.198 -3617888.539 23006891.907 10 0 60115 78300.00000 0 12044713.763 -1291567.203 22483475.450 10 0 60115 79200.00000 0 13710190.820 842628.896 21525018.545 10 0 60115 80100.00000 0 15433920.566 2741358.579 20149820.724 10 0 60115 81000.00000 0 17156621.451 4372185.884 18384249.345 10 0 60115 81900.00000 0 18815491.141 5714693.123 16262255.161 10 0 60115 82800.00000 0 20346776.687 6761091.251 13824740.626 10 0 60115 83700.00000 0 21688410.916 7516301.320 11118790.791 10 0 60115 84600.00000 0 22782605.389 7997502.535 8196779.525 10 0 60115 85500.00000 0 23578290.929 8233164.619 5115366.689 10 0 60116 0.00000 0 24033302.098 8261604.092 1934404.788 10 0 60116 900.00000 0 24116212.044 8129124.512 -1284225.860 10 0 60116 1800.00000 0 23807737.501 7887818.997 -4477826.330 10 0 60116 2700.00000 0 23101652.837 7593128.375 -7584113.932 10 0 60116 3600.00000 0 22005171.194 7301259.377 -10542453.019 10 0 60116 4500.00000 0 20538774.560 7066574.036 -13295057.579 10 0 60116 5400.00000 0 18735497.926 6939063.075 -15788139.846 10 0 60116 6300.00000 0 16639696.470 6962012.851 -17972980.478 10 0 60116 7200.00000 0 14305347.115 7169967.213 -19806897.478 10 0 60116 8100.00000 0 11793956.039 7587072.867 -21254093.385 10 0 60116 9000.00000 0 9172160.709 8225880.201 -22286363.055 10 0 60116 9900.00000 0 6509128.088 9086651.625 -22883647.543 10 0 60116 10800.00000 0 3873859.174 10157207.400 -23034423.145 10 0 60116 11700.00000 0 1332513.698 11413315.606 -22735918.303 10 0 60116 12600.00000 0 -1054132.472 12819609.370 -21994154.887 10 0 60116 13500.00000 0 -3232990.890 14330991.826 -20823814.073 10 0 60116 14400.00000 0 -5160629.411 15894468.523 -19247930.743 10 0 60116 15300.00000 0 -6804825.436 17451328.859 -17297423.740 10 0 60116 16200.00000 0 -8145640.665 18939583.580 -15010472.669 10 0 60116 17100.00000 0 -9175975.085 20296554.848 -12431754.786 10 0 60116 18000.00000 0 -9901580.097 21461509.333 -9611558.264 10 0 60116 18900.00000 0 -10340533.611 22378223.451 -6604790.318 10 0 60116 19800.00000 0 -10522202.494 22997373.236 -3469900.475 10 0 60116 20700.00000 0 -10485739.060 23278649.186 -267740.748 10 0 60116 21600.00000 0 -10278177.489 23192508.429 2939614.743 10 0 60116 22500.00000 0 -9952212.267 22721492.107 6090067.703 10 0 60116 23400.00000 0 -9563753.433 21861054.282 9122688.238 10 0 60116 24300.00000 0 -9169362.065 20619869.133 11978879.686 10 0 60116 25200.00000 0 -8823673.710 19019604.790 14603494.337 10 0 60116 26100.00000 0 -8576917.327 17094174.051 16945879.890 10 0 60116 27000.00000 0 -8472632.842 14888493.452 18960838.187 10 0 60116 27900.00000 0 -8545681.798 12456801.894 20609479.562 10 0 60116 28800.00000 0 -8820633.298 9860607.639 21859958.149 10 0 60116 29700.00000 0 -9310591.971 7166347.220 22688075.595 10 0 60116 30600.00000 0 -10016516.680 4442851.114 23077742.868 10 0 60116 31500.00000 0 -10927058.777 1758718.760 23021292.006 10 0 60116 32400.00000 0 -12018927.762 -820290.918 22519632.047 10 0 60116 33300.00000 0 -13257770.787 -3233747.789 21582245.678 10 0 60116 34200.00000 0 -14599531.568 -5428816.452 20227025.589 10 0 60116 35100.00000 0 -15992234.513 -7362207.290 18479952.082 10 0 60116 36000.00000 0 -17378122.111 -9001732.411 16374616.068 10 0 60116 36900.00000 0 -18696058.556 -10327401.803 13951594.394 10 0 60116 37800.00000 0 -19884100.742 -11332013.520 11257687.234 10 0 60116 38700.00000 0 -20882129.948 -12021212.278 8345030.118 10 0 60116 39600.00000 0 -21634433.881 -12413012.726 5270096.105 10 0 60116 40500.00000 0 -22092129.803 -12536806.228 2092606.201 10 0 60116 41400.00000 0 -22215325.139 -12431891.871 -1125631.354 10 0 60116 42300.00000 0 -21974922.256 -12145593.095 -4321930.185 10 0 60116 43200.00000 0 -21353988.538 -11731039.465 -7433958.911 10 0 60116 44100.00000 0 -20348631.084 -11244708.069 -10400972.931 10 0 60116 45000.00000 0 -18968336.315 -10743829.938 -13165018.969 10 0 60116 45900.00000 0 -17235757.758 -10283773.149 -15672086.892 10 0 60116 46800.00000 0 -15185959.125 -9915515.685 -17873184.265 10 0 60116 47700.00000 0 -12865143.424 -9683317.415 -19725310.725 10 0 60116 48600.00000 0 -10328921.122 -9622692.005 -21192311.577 10 0 60116 49500.00000 0 -7640190.297 -9758766.456 -22245592.816 10 0 60116 50400.00000 0 -4866718.414 -10105099.098 -22864682.881 10 0 60116 51300.00000 0 -2078527.984 -10663006.751 -23037630.056 10 0 60116 52200.00000 0 654803.534 -11421429.654 -22761228.037 10 0 60116 53100.00000 0 3266815.874 -12357339.405 -22041065.955 10 0 60116 54000.00000 0 5696698.163 -13436671.762 -20891402.919 10 0 60116 54900.00000 0 7891575.655 -14615743.647 -19334870.775 10 0 60116 55800.00000 0 9808456.344 -15843093.143 -17402012.292 10 0 60116 56700.00000 0 11415757.770 -17061663.393 -15130665.253 10 0 60116 57600.00000 0 12694352.470 -18211237.090 -12565205.911 10 0 60116 58500.00000 0 13638091.114 -19231017.906 -9755667.933 10 0 60116 59400.00000 0 14253784.631 -20062249.552 -6756755.247 10 0 60116 60300.00000 0 14560649.387 -20650762.036 -3626768.995 10 0 60116 61200.00000 0 14589241.938 -20949338.271 -426470.295 10 0 60116 62100.00000 0 14379931.002 -20919802.284 2782098.682 10 0 60116 63000.00000 0 13980973.268 -20534742.362 5936812.333 10 0 60116 63900.00000 0 13446275.623 -19778798.075 8976654.999 10 0 60116 64800.00000 0 12832938.860 -18649458.568 11842887.699 10 0 60116 65700.00000 0 12198686.281 -17157339.800 14480166.792 10 0 60116 66600.00000 0 11599284.764 -15325929.998 16837594.334 10 0 60116 67500.00000 0 11086065.504 -13190814.205 18869681.581 10 0 60116 68400.00000 0 10703647.081 -10798409.938 20537208.901 10 0 60116 69300.00000 0 10487954.822 -8204265.554 21807967.289 10 0 60116 70200.00000 0 10464618.084 -5470990.390 22657368.869 10 0 60116 71100.00000 0 10647811.631 -2665900.344 23068915.923 10 0 60116 72000.00000 0 11039589.205 141526.028 23034520.209 10 0 60116 72900.00000 0 11629737.517 2882278.257 22554666.674 10 0 60116 73800.00000 0 12396157.840 5490425.246 21638417.978 10 0 60116 74700.00000 0 13305760.942 7905601.182 20303258.726 10 0 60116 75600.00000 0 14315840.114 10075264.848 18574780.785 10 0 60116 76500.00000 0 15375867.253 11956639.711 16486213.724 10 0 60116 77400.00000 0 16429639.093 13518254.513 14077807.179 10 0 60116 78300.00000 0 17417685.603 14741019.961 11396074.710 10 0 60116 79200.00000 0 18279840.831 15618795.740 8492911.654 10 0 60116 80100.00000 0 18957868.706 16158422.868 5424602.270 10 0 60116 81000.00000 0 19398032.987 16379218.682 2250734.216 10 0 60116 81900.00000 0 19553501.842 16311954.395 -966959.166 10 0 60116 82800.00000 0 19386483.635 15997357.307 -4165806.092 10 0 60116 83700.00000 0 18870001.185 15484200.451 -7283428.831 10 0 60116 84600.00000 0 17989226.622 14827060.556 -10258976.110 10 0 60116 85500.00000 0 16742317.490 14083839.981 -13034329.572 10 0 60117 0.00000 0 15140716.163 13313159.011 -15555258.545 10 0 60117 900.00000 0 13208896.714 12571730.341 -17772499.827 10 0 60117 1800.00000 0 10983570.383 11911830.036 -19642736.157 10 0 60117 2700.00000 0 8512379.254 11378972.718 -21129457.173 10 0 60117 3600.00000 0 5852134.736 11009892.224 -22203681.415 10 0 60117 4500.00000 0 3066674.267 10830914.133 -22844525.965 10 0 60117 5400.00000 0 224426.874 10856789.826 -23039612.177 10 0 60117 6300.00000 0 -2604209.685 11090041.542 -22785299.836 10 0 60117 7200.00000 0 -5349569.620 11520845.574 -22086745.872 10 0 60117 8100.00000 0 -7945384.258 12127457.528 -20957787.488 10 0 60117 9000.00000 0 -10331300.227 12877160.196 -19420653.255 10 0 60117 9900.00000 0 -12455145.929 13727692.302 -17505509.208 10 0 60117 10800.00000 0 -14274852.799 14629095.991 -15249850.251 10 0 60117 11700.00000 0 -15759952.869 15525903.407 -12697750.213 10 0 60117 12600.00000 0 -16892592.374 16359568.609 -9898986.538 10 0 60117 13500.00000 0 -17668021.855 17071041.162 -6908057.904 10 0 60117 14400.00000 0 -18094545.350 17603372.283 -3783114.910 10 0 60117 15300.00000 0 -18192933.979 17904243.538 -584825.449 10 0 60117 16200.00000 0 -17995331.560 17928311.966 2624802.728 10 0 60117 17100.00000 0 -17543700.787 17639273.661 5783619.306 10 0 60117 18000.00000 0 -16887877.300 17011560.127 8830525.571 10 0 60117 18900.00000 0 -16083314.667 16031597.327 11706643.025 10 0 60117 19800.00000 0 -15188615.582 14698575.733 14356434.946 10 0 60117 20700.00000 0 -14262952.668 13024699.995 16728760.597 10 0 60117 21600.00000 0 -13363486.281 11034908.200 18777843.443 10 0 60117 22500.00000 0 -12542886.174 8766072.235 20464136.550 10 0 60117 23400.00000 0 -11847059.247 6265711.749 21755070.247 10 0 60117 24300.00000 0 -11313176.840 3590273.683 22625669.351 10 0 60117 25200.00000 0 -10968082.648 803046.675 23059029.359 10 0 60117 26100.00000 0 -10827146.891 -2028205.699 23046643.283 10 0 60117 27000.00000 0 -10893614.263 -4833797.568 22588573.086 10 0 60117 27900.00000 0 -11158473.247 -7544756.393 21693462.062 10 0 60117 28800.00000 0 -11600853.331 -10095434.963 20378386.890 10 0 60117 29700.00000 0 -12188935.092 -12425993.586 18668550.651 10 0 60117 30600.00000 0 -12881337.098 -14484651.009 16596820.706 10 0 60117 31500.00000 0 -13628923.625 -16229611.236 14203118.097 10 0 60117 32400.00000 0 -14376959.344 -17630586.059 11533667.923 10 0 60117 33300.00000 0 -15067522.060 -18669849.112 8640123.043 10 0 60117 34200.00000 0 -15642072.857 -19342776.175 5578576.251 10 0 60117 35100.00000 0 -16044075.518 -19657847.601 2408478.872 10 0 60117 36000.00000 0 -16221553.920 -19636111.235 -808513.906 10 0 60117 36900.00000 0 -16129477.820 -19310127.082 -4009748.365 10 0 60117 37800.00000 0 -15731873.875 -18722437.302 -7132804.072 10 0 60117 38700.00000 0 -15003569.866 -17923625.797 -10116726.843 10 0 60117 39600.00000 0 -13931495.322 -16970049.709 -12903237.034 10 0 60117 40500.00000 0 -12515480.624 -15921339.710 -15437887.586 10 0 60117 41400.00000 0 -10768518.116 -14837776.296 -17671147.165 10 0 60117 42300.00000 0 -8716472.064 -13777654.884 -19559385.315 10 0 60117 43200.00000 0 -6397248.137 -12794753.075 -21065738.774 10 0 60117 44100.00000 0 -3859456.485 -11936008.925 -22160840.841 10 0 60117 45000.00000 0 -1160624.394 -11239509.774 -22823398.812 10 0 60117 45900.00000 0 1634966.209 -10732877.452 -23040607.995 10 0 60117 46800.00000 0 4458725.168 -10432118.274 -22808394.486 10 0 60117 47700.00000 0 7240381.243 -10340985.914 -22131482.600 10 0 60117 48600.00000 0 9910679.475 -10450882.939 -21023286.665 10 0 60117 49500.00000 0 12404035.661 -10741303.571 -19505630.499 10 0 60117 50400.00000 0 14661037.114 -11180796.949 -17608301.457 10 0 60117 51300.00000 0 16630685.856 -11728408.119 -15368449.206 10 0 60117 52200.00000 0 18272291.831 -12335533.735 -12829842.397 10 0 60117 53100.00000 0 19556938.816 -12948112.201 -10041999.133 10 0 60117 54000.00000 0 20468464.148 -13509054.175 -7059209.410 10 0 60117 54900.00000 0 21003914.049 -13960809.737 -3939469.618 10 0 60117 55800.00000 0 21173458.445 -14247963.258 -743350.623 10 0 60117 56700.00000 0 20999771.820 -14319746.484 2467178.060 10 0 60117 57600.00000 0 20516908.798 -14132364.318 5629945.098 10 0 60117 58500.00000 0 19768723.862 -13651036.161 8683772.172 10 0 60117 59400.00000 0 18806903.154 -12851668.008 11569644.356 10 0 60117 60300.00000 0 17688691.806 -11722086.092 14231834.501 10 0 60117 61200.00000 0 16474412.210 -10262781.285 16618961.247 10 0 60117 62100.00000 0 15224876.633 -8487133.628 18684961.936 10 0 60117 63000.00000 0 13998801.286 -6421107.595 20389963.495 10 0 60117 63900.00000 0 12850328.438 -4102430.226 21701036.287 10 0 60117 64800.00000 0 11826758.314 -1579285.007 22592818.073 10 0 60117 65700.00000 0 10966583.794 1091426.136 23047997.414 10 0 60117 66600.00000 0 10297908.513 3846183.061 23057648.044 10 0 60117 67500.00000 0 9837313.433 6617225.557 22621408.094 10 0 60117 68400.00000 0 9589218.886 9335113.807 21747500.345 10 0 60117 69300.00000 0 9545769.075 11931367.801 20452592.163 10 0 60117 70200.00000 0 9687244.871 14341078.690 18761496.246 10 0 60117 71100.00000 0 9982989.112 16505385.531 16706715.978 10 0 60117 72000.00000 0 10392807.476 18373715.594 14327841.888 10 0 60117 72900.00000 0 10868787.969 19905695.243 11670808.569 10 0 60117 73800.00000 0 11357464.235 21072651.267 8787024.212 10 0 60117 74700.00000 0 11802232.728 21858638.782 5732387.855 10 0 60117 75600.00000 0 12145922.339 22260951.100 2566212.085 10 0 60117 76500.00000 0 12333407.647 22290088.450 -649928.534 10 0 60117 77400.00000 0 12314154.147 21969185.160 -3853400.848 10 0 60117 78300.00000 0 12044585.880 21332918.083 -6981744.165 10 0 60117 79200.00000 0 11490172.699 20425941.455 -9973903.743 10 0 60117 80100.00000 0 10627145.908 19300914.037 -12771440.845 10 0 60117 81000.00000 0 9443766.660 18016202.334 -15319693.816 10 0 60117 81900.00000 0 7941090.563 16633357.969 -17568865.453 10 0 60117 82800.00000 0 6133193.690 15214477.289 -19475013.476 10 0 60117 83700.00000 0 4046848.518 13819556.472 -21000923.153 10 0 60117 84600.00000 0 1720662.087 12503955.505 -22116843.796 10 0 60117 85500.00000 0 -796287.980 11316079.530 -22801073.981 99